Volver al catálogo

SL-14 DEB

ActivoPO
NORAD 26007·DEBRIS·🇷🇺 Russia

Lanzado Sep 28, 1991 desde Plesetsk Cosmodrome

Loading…

Próximos Pases (próximas 24 horas)

TLE

ActualizadoSource: Space-Track

Época: Sep 14, 2026, 14:54 UTC

1 26007U 91068S   26257.62096392  .00000018  00000-0  49253-4 0  9994
2 26007  82.7012 198.8256 0011293 344.6093 133.3196 12.48359294227094

Sigue SL-14 DEB en tiempo real con AllMySat

Download on the App Store